{"data":{"norad_id":47259,"epoch":"2026-09-19T23:33:17.787168Z","epoch_age_seconds":59134,"freshness":"FRESH","line1":"1 47259U 20100B   26262.98145587 -.00000271  00000+0 -78879-3 0  9998","line2":"2 47259  87.8986 331.8435 0001736 100.5054 259.6270 13.12443568276995","mean_motion":13.12443568,"eccentricity":0.0001736,"inclination_deg":87.8986,"raan_deg":331.8435,"arg_perigee_deg":100.5054,"mean_anomaly_deg":259.627,"bstar":-0.00078879,"rev_number":27699,"period_min":109.71900317165,"perigee_km":1212.4031540752,"apogee_km":1215.0390472077,"semimajor_km":7591.8581006415,"source":"CELESTRAK","updated_at":"2026-09-20T09:00:44.559899Z"}}